Regional Weather Roundup
Issued by NWS

Home | Current Version | Previous Version | Text Only | Print | Product List | Glossary Off
Versions: 1 2 3 4 5 6 7 8 9 10 11 12 13 14 15 16 17 18 19 20 21 22 23 24 25 26 27 28 29 30 31 32 33 34 35 36 37 38 39 40 41 42 43 44 45 46 47 48 49 50

000
ASUS45 KCYS 291410
RWRWY

WYOMING REGIONAL WEATHER ROUNDUP
NATIONAL WEATHER SERVICE CHEYENNE WY
800 AM MDT SAT AUG 29 2015

NOTE:  "FAIR" INDICATES FEW OR NO CLOUDS BELOW 12,000 FEET
WITH NO SIGNIFICANT WEATHER AND/OR OBSTRUCTIONS TO VISIBILITY.

WYZ001-291500-
YELLOWSTONE NATIONAL PARK

CITY           SKY/WX    TMP DP  RH WIND       PRES   REMARKS
LK YELLOWSTONE   N/A     46  41  82 CALM      30.36R
W YELLOWSTONE  NOT AVBL

$$
WYZ002>013-054>058-071-098>099-291500-
NORTHERN WYOMING

CITY           SKY/WX    TMP DP  RH WIND       PRES   REMARKS
JACKSON        SUNNY     46  43  87 CALM      30.29R
CODY           FAIR      66  39  37 SW7       30.12S
GREYBULL       FAIR      59  38  45 CALM      30.07R
WORLAND        FAIR      56  47  71 CALM      30.08R
SHERIDAN       FAIR      60  47  61 CALM      30.04S
BUFFALO        FAIR      75  37  25 S5        30.12R
GILLETTE       FAIR      70  41  34 SW14      30.09F
HULETT         FAIR      66  48  52 CALM      30.12R
NEWCASTLE      FAIR      70  37  30 SE6       30.15R

$$
WYZ014>020-022>026-101>103-291500-
CENTRAL WYOMING

CITY           SKY/WX    TMP DP  RH WIND       PRES   REMARKS
BIG PINEY      FAIR      50  34  54 CALM      30.35R
PINEDALE       FAIR      45  37  76 NW6       30.35R
DUBOIS         FAIR      48  34  57 NW10      30.32S
LANDER         FAIR      58  37  45 SE5       30.19R
RIVERTON       FAIR      60  43  53 W3        30.20R
CASPER         FAIR      64  39  39 SW9       30.20R
DOUGLAS        FAIR      57  43  59 W5        30.20R

$$
WYZ021-027>030-104>119-291500-
SOUTHERN WYOMING

CITY           SKY/WX    TMP DP  RH WIND       PRES   REMARKS
EVANSTON       FAIR      59  34  39 SE5       30.31R
KEMMERER       FAIR      54  34  47 N8        30.34R
FORT BRIDGER   SUNNY     61  36  39 CALM      30.35R
ROCK SPRINGS   FAIR      61  34  36 SE6       30.31R
DIXON          FAIR      56  38  51 E9        30.36R
RAWLINS        FAIR      56  40  55 CALM      30.34R
SARATOGA       FAIR      55  41  58 SE12      30.37R
LARAMIE        FAIR      51  40  65 S5        30.37S
CHEYENNE       FAIR      58  44  60 W7        30.30R
TORRINGTON     FAIR      58  47  66 E6        30.17R
PINE BLUFFS    FAIR      50  43  76 CALM      30.26S

$$


USA.gov is the U.S. government's official web portal to all federal, state and local government web resources and services.